Location: Gorze? G�rny
(49.8500°N, 19.5000°E)
Time: 04:13:40
(UTC+00:00)

Sich 1 Rocket - Pass Details

Date: 13 May 2021
Orbit: 615 x 653 km, 82.5° (Epoch: 23 June)

Event Time Altitude Azimuth Distance (km) Brightness Sun altitude
Rises 22:02:39 0° 354° (N) 2,982 8.6 -21.1°
Reaches altitude 10° 22:05:02 10° 2° (N) 2,062 7.4 -21.1°
Maximum altitude 22:09:23 42° 74° (ENE) 919 4.4 -21.2°
Enters shadow 22:10:33 35° 111° (ESE) 1,040 4.4 -21.3°
